FLOCK 4Y-24 (55020 NORAD) Tracking and Keplerian Element Data

This shows tracking and keplerian element data for the satellite.

Feedback or suggestion? Click here.




ElementValue
Catalog55020
NameFLOCK 4Y-24
Epoch Orbit1245
Epoch Day84.91964104
Epoch Year2023
RAAN145.7075
Inclination97.4863
Eccentricity0.0009471
Argument of Perigee301.9935
Mean Anonmoly58.0377
Mean Motion15.15609059
Decay Rate0.00037997
L11 55020U 23001M 23084.91964104 .00037997 00000+0 19930-2 0 9997
L22 55020 97.4863 145.7075 0009471 301.9935 58.0377 15.15609059 12454



Live tracking and technical data element details for FLOCK 4Y-24 (NORAD 55020). FLOCK 4Y-24 can be tracked NOW for your location showing map with azimuth and elevation plus other details from your city location.







IsCatalogInMostPopularTable: catalog: 55020, numindb: 8
Update: records affected: 1



GetName: 55020 FLOCK 4Y-24

Hit Count: updated at: Mon, 27 Mar 2023 07:15:54 GMT